カタログに戻る

CHUANG XIN 1-02

CX-1-02

運用中科学SSO
NORAD 33434·PAYLOAD·🇨🇳 China

打ち上げ Nov 5, 2008 から Jiuquan Satellite Launch Center

Loading…

次のパス (今後24時間)

TLE

最新Source: Space-Track

元期: Sep 14, 2026, 11:58 UTC

1 33434U 08056B   26257.49914646  .00000016  00000-0  23240-4 0  9993
2 33434  98.6099 282.8615 0013205 235.9333 124.0596 14.30168097931381

AllMySatでCHUANG XIN 1-02をリアルタイム追跡

Download on the App Store